NAPA-2

operational
NORAD ID: 48963 Int'l Des: 2021-059 Owner: RTAF Country: T
LEOCIRCULARRETROGRADE

About NAPA-2

Description loading...

Live Position

Loading 3D Globe...

Upcoming Passes

Altitude History

Altitude vs Time

uPlot chart will show altitude changes over time

Two-Line Element Set

1 48963U 21059CN 26062.47922860 .00086926 00000-0 72880-3 0 9990
2 48963 97.6838 249.3564 0003517 339.6377 20.4743 15.69673012261100
Epoch: Mar 3, 2026 • Age: 24 hours

Current Status

Altitude 371.3 km
Velocity 7.69 km/s
Sub-Earth Point -36.58°S, 100.1°E
Launch Date Jun 30, 2021
Age 4.6 years
Type other

Technical Details

Classification Payload
Mass 10.00 kg
Dry Mass 10.00 kg
Total Mass 10.00 kg
Length 0.30 m
Diameter 0.20 m
Span 0.30 m
Shape Box
Manufacturer ISISBV
Bus Type Cubesat 6U
Phase Status In Orbit
Owner/State RTAF/T

Large Constellations

Loading constellations...